Weather History for Greenville, AL

Change the Weather History Date:

Sunday, February 24, 2013

  Actual Average Record
Temperature  
Mean Temperature 56 °F -  
Max Temperature 71 °F 64 °F 81 °F (1982)
Min Temperature 42 °F 39 °F 19 °F (1989)
Degree Days  
Heating Degree Days 8    
Growing Degree Days 6 (Base 50)    
Moisture  
Dew Point 42 °F    
Average Humidity 68    
Maximum Humidity 100    
Minimum Humidity 28    
Precipitation  
Precipitation 0.00 in - - ()
Sea Level Pressure  
Sea Level Pressure 29.96 in    
Wind  
Wind Speed 3 mph (ENE)    
Max Wind Speed 7 mph    
Max Gust Speed -    
Visibility 6 miles    
Events Fog    
Averages and records for this station are not official NWS values.
T = Trace of Precipitation, MM = Missing Value Source: NWS Daily Summary

Daily Weather History Graph

Daily Weather History Graph

Search for Another Location

Airport:

Trip Planner

Search our weather history database for the weather conditions in past years. The results will help you decide how hot, cold, wet, or windy it might be!

Date:

Astronomy

Feb. 24, 2013 Rise Set
Actual Time 6:18 AM CST 5:40 PM CST
Civil Twilight 5:54 AM CST 6:05 PM CST
Nautical Twilight 5:25 AM CST 6:33 PM CST
Astronomical Twilight 4:57 AM CST 7:01 PM CST
Moon 4:51 PM CST (2/24) 5:14 AM CST (2/24)
Length of Visible Light 12h 10m
Length of Day
11h 21m
Waxing Gibbous, 99% of the Moon is Illuminated
Feb 24
Waxing Gibbous
Feb 25
Full
Mar 4
Last Quarter
Mar 11
New
Mar 19
First Quarter

Hourly Weather History & Observations

Time (CST) Temp. Windchill Dew Point Humidity Pressure Visibility Wind Dir Wind Speed Gust Speed Precip Events Conditions
12:56 AM 48.9 °F - 46.9 °F 93% 29.95 in 4.0 mi Calm Calm - N/A   Clear
1:24 AM 46.4 °F - 46.4 °F 100% 29.96 in 1.0 mi Calm Calm - N/A   Clear
1:31 AM 46.4 °F - 44.6 °F 93% 29.96 in 0.5 mi Calm Calm - N/A Fog Fog
1:56 AM 45.0 °F - 44.1 °F 97% 29.95 in 0.5 mi Calm Calm - N/A Fog Fog
2:56 AM 44.1 °F - 43.0 °F 96% 29.94 in 0.2 mi Calm Calm - N/A Fog Fog
3:56 AM 44.1 °F - 43.0 °F 96% 29.96 in 0.2 mi Calm Calm - N/A Fog Fog
4:56 AM 43.0 °F 40.3 °F 42.1 °F 97% 29.96 in 0.2 mi NNE 4.6 mph - N/A Fog Fog
5:56 AM 42.1 °F 40.2 °F 41.0 °F 96% 29.98 in 0.2 mi North 3.5 mph - N/A Fog Fog
6:56 AM 42.1 °F 40.2 °F 41.0 °F 96% 29.99 in 0.2 mi NE 3.5 mph - N/A Fog Fog
7:51 AM 46.4 °F 44.3 °F 44.6 °F 93% 30.01 in 1.8 mi ENE 4.6 mph - N/A   Overcast
7:53 AM 46.4 °F 43.5 °F 44.6 °F 93% 30.01 in 3.0 mi ENE 5.8 mph - N/A   Mostly Cloudy
7:56 AM 46.0 °F 43.1 °F 44.1 °F 93% 30.01 in 5.0 mi NE 5.8 mph - N/A   Mostly Cloudy
8:08 AM 46.4 °F 44.3 °F 44.6 °F 93% 30.01 in 7.0 mi NNE 4.6 mph - N/A   Scattered Clouds
8:56 AM 52.0 °F - 45.0 °F 77% 30.02 in 10.0 mi NE 5.8 mph - N/A   Clear
9:56 AM 57.9 °F - 46.0 °F 65% 30.01 in 10.0 mi East 5.8 mph - N/A   Clear
10:56 AM 63.0 °F - 43.0 °F 48% 30.00 in 10.0 mi Variable 4.6 mph - N/A   Clear
11:56 AM 66.0 °F - 42.1 °F 42% 29.98 in 10.0 mi Variable 5.8 mph - N/A   Clear
12:56 PM 69.1 °F - 39.9 °F 35% 29.95 in 10.0 mi ESE 6.9 mph - N/A   Clear
1:56 PM 71.1 °F - 37.9 °F 30% 29.94 in 10.0 mi ENE 3.5 mph - N/A   Clear
2:56 PM 70.0 °F - 35.1 °F 28% 29.93 in 10.0 mi Variable 4.6 mph - N/A   Clear
3:56 PM 70.0 °F - 37.0 °F 30% 29.92 in 10.0 mi East 3.5 mph - N/A   Clear
4:56 PM 69.1 °F - 37.9 °F 32% 29.92 in 10.0 mi ENE 4.6 mph - N/A   Clear
5:56 PM 63.0 °F - 42.1 °F 46% 29.92 in 10.0 mi ENE 3.5 mph - N/A   Clear
6:56 PM 59.0 °F - 43.0 °F 55% 29.93 in 10.0 mi NNE 4.6 mph - N/A   Clear
7:56 PM 57.9 °F - 43.0 °F 58% 29.94 in 10.0 mi NE 3.5 mph - N/A   Clear
8:56 PM 57.9 °F - 41.0 °F 53% 29.93 in 10.0 mi ENE 5.8 mph - N/A   Clear
9:56 PM 59.0 °F - 39.9 °F 49% 29.91 in 10.0 mi ENE 4.6 mph - N/A   Clear
10:56 PM 59.0 °F - 41.0 °F 51% 29.89 in 10.0 mi East 5.8 mph - N/A   Partly Cloudy
11:56 PM 59.0 °F - 41.0 °F 51% 29.86 in 10.0 mi ENE 5.8 mph - N/A   Overcast